Pine River, MN

3:38 PM CST on February 12, 2016 (GMT -0600)
Pine River Regional

Weather History for KPWC - March, 2013

Change the Weather History Date:

Saturday, March 9, 2013

  Actual Average Record
Temperature  
Mean Temperature 30 °F -  
Max Temperature 33 °F 29 °F 51 °F (2015)
Min Temperature 28 °F 9 °F -9 °F (2003)
Degree Days  
Heating Degree Days 34    
Moisture  
Dew Point 30 °F    
Average Humidity 94    
Maximum Humidity 100    
Minimum Humidity 80    
Precipitation  
Precipitation 0.60 in - - ()
Sea Level Pressure  
Sea Level Pressure 29.86 in    
Wind  
Wind Speed 5 mph (East)    
Max Wind Speed 12 mph    
Max Gust Speed -    
Visibility 2 miles    
Events Snow    
Averages and records for this station are not official NWS values.
T = Trace of Precipitation, MM = Missing Value Source: NWS Daily Summary

Daily Weather History Graph

Daily Weather History Graph

Search for Another Location

Airport or City:

Trip Planner

Search our weather history database for the weather conditions in past years. The results will help you decide how hot, cold, wet, or windy it might be!

Date:

Astronomy

Mar. 09, 2013 Rise Set
Actual Time 6:41 AM CST 6:15 PM CST
Civil Twilight 6:11 AM CST 6:45 PM CST
Nautical Twilight 5:36 AM CST 7:20 PM CST
Astronomical Twilight 5:00 AM CST 7:56 PM CST
Moon 5:12 AM CST (3/9) 4:13 PM CST (3/9)
Length of Visible Light 12h 34m
Length of Day
11h 33m
Waning Crescent, 5% of the Moon is Illuminated
Mar 9
Waning Crescent
Mar 11
New
Mar 19
First Quarter
Mar 27
Full
Apr 2
Last Quarter

Hourly Weather History & Observations

Time (CST) Temp. Windchill Dew Point Humidity Pressure Visibility Wind Dir Wind Speed Gust Speed Precip Events Conditions
12:12 AM 30.2 °F 25.4 °F 24.8 °F 80% 30.07 in 7.0 mi ESE 4.6 mph - N/A   Mostly Cloudy
12:32 AM 30.2 °F 24.3 °F 24.8 °F 80% 30.06 in 7.0 mi ESE 5.8 mph - N/A   Mostly Cloudy
12:53 AM 30.2 °F 25.4 °F 24.8 °F 80% 30.05 in 7.0 mi ESE 4.6 mph - N/A   Overcast
1:12 AM 30.2 °F 25.4 °F 24.8 °F 80% 30.05 in 7.0 mi SE 4.6 mph - N/A   Overcast
1:33 AM 30.2 °F - 24.8 °F 80% 30.05 in 7.0 mi Calm Calm - N/A   Overcast
1:53 AM 30.2 °F 26.7 °F 24.8 °F 80% 30.04 in 7.0 mi ESE 3.5 mph - N/A   Overcast
2:13 AM 30.2 °F 25.4 °F 24.8 °F 80% 30.02 in 5.0 mi East 4.6 mph - N/A   Haze
2:33 AM 30.2 °F 24.3 °F 26.6 °F 86% 30.00 in 5.0 mi East 5.8 mph - N/A   Overcast
2:53 AM 30.2 °F 23.4 °F 26.6 °F 86% 29.99 in 3.0 mi East 6.9 mph - 0.01 in   Overcast
3:13 AM 30.2 °F 23.4 °F 26.6 °F 86% 29.98 in 1.8 mi East 6.9 mph - 0.02 in Snow Light Snow
3:33 AM 30.2 °F 22.6 °F 28.4 °F 93% 29.97 in 1.0 mi East 8.1 mph - 0.02 in Snow Light Snow
3:53 AM 28.4 °F 20.4 °F 28.4 °F 100% 29.96 in 1.0 mi East 8.1 mph - 0.01 in Snow Snow
4:13 AM 28.4 °F 21.2 °F 28.4 °F 100% 29.95 in 0.8 mi East 6.9 mph - 0.02 in Snow Snow
4:33 AM 28.4 °F 21.2 °F 28.4 °F 100% 29.94 in 0.8 mi East 6.9 mph - 0.04 in Snow Snow
4:53 AM 30.2 °F 23.4 °F 28.4 °F 93% 29.94 in 0.8 mi ESE 6.9 mph - 0.01 in Snow Snow
5:12 AM 30.2 °F 22.6 °F 28.4 °F 93% 29.93 in 0.8 mi East 8.1 mph - 0.03 in Snow Snow
5:53 AM 30.2 °F 24.3 °F 28.4 °F 93% 29.92 in 0.5 mi ESE 5.8 mph - 0.01 in Snow Snow
6:13 AM 30.2 °F 26.7 °F 28.4 °F 93% 29.91 in 0.5 mi East 3.5 mph - 0.03 in Snow Snow
6:33 AM 30.2 °F 25.4 °F 28.4 °F 93% 29.91 in 0.8 mi ESE 4.6 mph - 0.05 in Snow Snow
6:53 AM 30.2 °F 25.4 °F 28.4 °F 93% 29.91 in 1.0 mi East 4.6 mph - N/A Snow Light Snow
7:13 AM 30.2 °F 24.3 °F 28.4 °F 93% 29.90 in 0.5 mi East 5.8 mph - 0.02 in Snow Snow
7:33 AM 30.2 °F 24.3 °F 28.4 °F 93% 29.89 in 0.5 mi East 5.8 mph - 0.04 in Snow Light Snow
7:52 AM 30.2 °F 24.3 °F 28.4 °F 93% 29.89 in 0.5 mi ESE 5.8 mph - N/A Snow Light Snow
8:13 AM 30.2 °F - 28.4 °F 93% 29.89 in 1.2 mi Calm Calm - 0.05 in   Overcast
8:33 AM 30.2 °F 25.4 °F 30.2 °F 100% 29.88 in 1.2 mi East 4.6 mph - 0.08 in   Overcast
8:53 AM 30.2 °F 25.4 °F 30.2 °F 100% 29.87 in 1.5 mi ESE 4.6 mph - 0.01 in   Overcast
9:12 AM 30.2 °F 25.4 °F 30.2 °F 100% 29.86 in 1.8 mi East 4.6 mph - 0.02 in   Overcast
9:32 AM 32.0 °F 25.6 °F 30.2 °F 93% 29.85 in 2.0 mi ESE 6.9 mph - 0.02 in   Overcast
9:53 AM 32.0 °F 26.4 °F 30.2 °F 93% 29.84 in 1.8 mi ESE 5.8 mph - N/A   Overcast
10:13 AM 32.0 °F 27.5 °F 30.2 °F 93% 29.84 in 1.0 mi ESE 4.6 mph - N/A   Overcast
10:33 AM 32.0 °F 26.4 °F 30.2 °F 93% 29.83 in 1.0 mi SE 5.8 mph - N/A   Overcast
10:52 AM 32.0 °F 25.6 °F 30.2 °F 93% 29.84 in 1.0 mi SE 6.9 mph - N/A   Overcast
11:13 AM 32.0 °F 26.4 °F 32.0 °F 100% 29.83 in 1.0 mi SSE 5.8 mph - N/A   Overcast
11:33 AM 32.0 °F 25.6 °F 32.0 °F 100% 29.82 in 1.2 mi SE 6.9 mph - N/A   Overcast
11:53 AM 32.0 °F 27.5 °F 32.0 °F 100% 29.82 in 1.0 mi SE 4.6 mph - N/A   Overcast
12:12 PM 32.0 °F - 32.0 °F 100% 29.81 in 1.0 mi Calm Calm - N/A   Overcast
12:33 PM 33.8 °F - 32.0 °F 93% 29.80 in 1.0 mi Calm Calm - N/A   Overcast
12:52 PM 33.8 °F 30.8 °F 32.0 °F 93% 29.80 in 1.5 mi SE 3.5 mph - N/A   Overcast
1:13 PM 33.8 °F - 32.0 °F 93% 29.79 in 1.2 mi Calm Calm - N/A Snow Light Snow
1:33 PM 33.8 °F - 32.0 °F 93% 29.79 in 1.2 mi Calm Calm - 0.01 in Snow Snow
1:53 PM 32.0 °F - 32.0 °F 100% 29.78 in 0.8 mi Calm Calm - 0.01 in Snow Light Snow
2:13 PM 33.8 °F - 32.0 °F 93% 29.77 in 1.0 mi Calm Calm - 0.02 in Snow Light Snow
2:33 PM 32.0 °F 28.7 °F 32.0 °F 100% 29.77 in 1.0 mi East 3.5 mph - 0.04 in Snow Light Snow
2:52 PM 33.8 °F - 32.0 °F 93% 29.77 in 0.8 mi Calm Calm - 0.01 in Snow Light Snow
3:13 PM 32.0 °F - 32.0 °F 100% 29.76 in 0.5 mi Calm Calm - 0.04 in Snow Light Snow
3:33 PM 32.0 °F 27.5 °F 32.0 °F 100% 29.74 in 0.5 mi NNE 4.6 mph - 0.07 in Snow Snow
3:51 PM 32.0 °F - 32.0 °F 100% 29.74 in 0.5 mi Calm Calm - 0.01 in Snow Snow
4:13 PM 32.0 °F - 32.0 °F 100% 29.77 in 0.8 mi Calm Calm - 0.04 in Snow Light Snow
4:33 PM 32.0 °F - 32.0 °F 100% 29.77 in 0.5 mi Calm Calm - 0.07 in Snow Snow
4:53 PM 32.0 °F - 32.0 °F 100% 29.77 in 0.5 mi Calm Calm - 0.02 in Snow Light Snow
5:13 PM 32.0 °F - 32.0 °F 100% 29.77 in 0.5 mi Calm Calm - 0.06 in Snow Snow
5:33 PM 32.0 °F - 32.0 °F 100% 29.77 in 0.8 mi Calm Calm - 0.08 in Snow Light Snow
5:52 PM 32.0 °F - 32.0 °F 100% 29.78 in 0.5 mi Calm Calm - 0.01 in Snow Snow
6:13 PM 32.0 °F - 32.0 °F 100% 29.79 in 1.0 mi Calm Calm - 0.02 in Snow Light Snow
6:33 PM 32.0 °F - 32.0 °F 100% 29.79 in 1.5 mi Calm Calm - 0.03 in Snow Light Snow
6:52 PM 32.0 °F - 32.0 °F 100% 29.80 in 1.5 mi Calm Calm - N/A Snow Light Snow
7:12 PM 32.0 °F 27.5 °F 32.0 °F 100% 29.80 in 1.5 mi NNW 4.6 mph - N/A Snow Light Snow
7:32 PM 32.0 °F 26.4 °F 32.0 °F 100% 29.81 in 1.8 mi NNW 5.8 mph - 0.01 in Snow Light Snow
7:53 PM 32.0 °F 27.5 °F 32.0 °F 100% 29.81 in 2.0 mi NNW 4.6 mph - N/A Snow Light Snow
8:12 PM 32.0 °F 26.4 °F 32.0 °F 100% 29.81 in 2.5 mi NNW 5.8 mph - N/A Snow Light Snow
8:53 PM 32.0 °F 25.6 °F 32.0 °F 100% 29.82 in 2.5 mi NNW 6.9 mph - N/A Snow Light Snow
9:12 PM 32.0 °F 26.4 °F 32.0 °F 100% 29.83 in 3.0 mi NNW 5.8 mph - N/A Snow Light Snow
9:32 PM 32.0 °F 25.6 °F 30.2 °F 93% 29.83 in 4.0 mi NNW 6.9 mph - N/A Snow Light Snow
9:52 PM 32.0 °F 26.4 °F 30.2 °F 93% 29.84 in 7.0 mi NNW 5.8 mph - N/A   Overcast
10:13 PM 32.0 °F 24.8 °F 30.2 °F 93% 29.84 in 7.0 mi NW 8.1 mph - N/A   Overcast
10:33 PM 30.2 °F 22.6 °F 28.4 °F 93% 29.84 in 7.0 mi NNW 8.1 mph - N/A   Overcast
10:52 PM 30.2 °F 21.9 °F 28.4 °F 93% 29.85 in 7.0 mi NNW 9.2 mph - N/A   Overcast
11:13 PM 30.2 °F 20.8 °F 28.4 °F 93% 29.86 in 7.0 mi NNW 11.5 mph - N/A   Overcast
11:31 PM 30.2 °F 20.8 °F 28.4 °F 93% 29.86 in 7.0 mi NNW 11.5 mph - N/A   Overcast
11:53 PM 30.2 °F 21.3 °F 28.4 °F 93% 29.86 in 7.0 mi NNW 10.4 mph - N/A   Overcast